Printer-friendly version

IAU Minor Planet Center

Minor Planet Center

(85310) 1994 WH5

Orbital Elements

The following orbital elements are taken from MPO 62648
 (85310) 1994 WH5
Epoch 2007 Oct. 27.0 TT = JDT 2454400.5                 MPC
M 317.86695              (2000.0)            P               Q
n   0.22600805     Peri.  230.61116     +0.01814656     -0.99972746
a   2.6692348      Node   218.35676     +0.92445347     +0.02237220
e   0.1942629      Incl.    1.35618     +0.38086282     -0.00667024
P   4.36           H   17.4           G   0.15           U   1
From 44 observations at 4 oppositions, 1994-2003, mean residual 0".51.
An explanation of the orbital elements is available.

These orbital elements are also available in forms suitable for loading into a number of popular planetarium-type software programs.


Ephemeris

The following ephemeris is at intervals of five days. A daily ephemeris covering the same time interval is also available.

Personalized ephemerides for this (and other) objects may be generated using the Minor Planet & Comet Ephemeris Service.

Date    TT    R. A. (2000) Decl.     Delta      r     Elong.  Phase     V
2009 10 26    14 47.35   -15 56.8    3.978    3.011    11.7     3.8    23.1

Valid HTML 4.01!